Simultaneous Nadir Overpasses (SNOs) Predictions

Prediction of SNOs between NOAA-19 and METOP-C Satellite Orbit:

Table of predicted SNOs for the next 14.0 days since TLE Epoch: 3/22/2019
Index Date (NOAA-19) Time (NOAA-19) Lat,Lon (NOAA-19) SZA (NOAA-19 ) Date (METOP-C) Time (METOP-C) Lat,Lon (METOP-C) SZA (METOP-C ) Distance(km) Time Diff (sec)
1 03/24/2019 21:06:06 -79.06, 58.12 102.28 03/24/2019 21:07:12 -79.08, 58.02 102.25 2.72 66
2 03/24/2019 21:57:07 79.05,-134.55 77.71 03/24/2019 21:57:53 79.08,-134.64 77.74 3.57 46
3 03/24/2019 22:48:07 -79.07, 32.59 102.30 03/24/2019 22:48:34 -79.07, 32.59 102.30 0.05 27
4 03/24/2019 23:39:08 79.06,-160.07 77.68 03/24/2019 23:39:15 79.07,-160.07 77.69 1.31 7
5 03/25/2019 00:30:08 -79.07, 7.07 102.33 03/25/2019 00:29:56 -79.05, 7.16 102.34 2.63 12
6 03/25/2019 01:21:09 79.06, 174.40 77.66 03/25/2019 01:20:37 79.05, 174.49 77.65 1.94 32
7 03/25/2019 02:12:08 -79.04, -18.20 102.37 03/25/2019 02:11:18 -79.04, -18.27 102.39 1.61 50
8 03/25/2019 03:03:09 79.03, 149.14 77.61 03/25/2019 03:01:59 79.04, 149.06 77.61 2.23 70
9 04/04/2019 19:47:26 79.13,-102.37 73.58 04/04/2019 19:48:40 79.11,-102.10 73.59 6.10 74
10 04/04/2019 20:38:22 -79.10, 65.18 106.46 04/04/2019 20:39:21 -79.10, 65.15 106.45 0.78 59
11 04/04/2019 21:29:26 79.10,-127.63 73.54 04/04/2019 21:30:02 79.10,-127.53 73.54 2.07 36
12 04/04/2019 22:20:23 -79.10, 39.66 106.48 04/04/2019 22:20:43 -79.09, 39.72 106.49 2.00 20
13 04/04/2019 23:11:26 79.07,-152.89 73.49 04/04/2019 23:11:24 79.09,-152.97 73.50 2.06 2
14 04/05/2019 00:02:23 -79.07, 14.39 106.53 04/05/2019 00:02:05 -79.07, 14.28 106.53 2.29 18
15 04/05/2019 00:53:27 79.08,-178.41 73.47 04/05/2019 00:52:46 79.07,-178.40 73.46 0.57 41
16 04/05/2019 01:44:24 -79.08, -11.14 106.55 04/05/2019 01:43:27 -79.06, -11.15 106.58 1.65 57




NCC Satellite Simultaneous Nadir Overpasses (SNOs) Prediction Service
